Location: Goettingen
(51.5300°N, 9.9433°E)
Time: 12:34:01
(UTC+02:00)

ISS - Pass Details

Date: 22 September 2020
Orbit: 419 x 420 km, 51.6° (Epoch: 18 September)

Event Time Altitude Azimuth Distance (km) Brightness Sun altitude
Rises 21:41:23 0° 264° (W) 2,366 0.9 -22.2°
Reaches altitude 10° 21:43:29 10° 264° (W) 1,502 -0.2 -22.5°
Enters shadow 21:45:57 45° 266° (W) 579 -2.8 -22.8°
